Find BOTAN

NORAD ID: 65943 Int'l Des: 1998-067 Owner: CHIBA Country: J decayed
LEOCIRCULAR

Historical Track — Apr 19, 2026

Loading 3D Globe...

About BOTAN

Description loading...

Altitude History

Loading altitude history...

Two-Line Element Set

1 65943U 98067XQ 26108.50080101 .04905991 12189-4 10064-2 0 9994
2 65943 51.6087 206.4857 0010568 326.5110 33.5243 16.30209287 29858
Epoch: Apr 18, 2026 • Age: 308 hours

Current Status

Position data unavailable
Launch Date Sep 14, 2025
Age 0.6 years
Decay Date Apr 19, 2026
Type other

Technical Details

Classification Payload
Mass 1.00 kg
Dry Mass 1.00 kg
Total Mass 1.00 kg
Length 0.10 m
Diameter 0.10 m
Span 0.10 m
Shape Box
Manufacturer CHIBA
Bus Type Cubesat 1U
Phase Status Reentered
Owner/State CHIBA/J

Most Searched